#timestamp,LO_Frequency,Hit,StdDev 
1568095215.3,286047002.6,N
1568095235.2,286046999.9,N
1568095255.9,286047000.0,N
1568095275.7,286046998.7,N
1568095295.6,286046998.9,N
1568095315.4,286046999.4,N
1568095335.2,286046998.5,N
1568095355.1,286047000.3,N
1568095356.0,286047000.3,N
1568095375.8,286046998.1,N
1568095395.7,286046998.2,N
1568095415.5,286047000.8,N
1568095435.3,286046998.4,N
1568095455.2,286046998.9,N
1568095475.0,286046996.7,N
1568095475.9,286046996.7,N
1568095495.7,286046994.9,N
1568095515.6,286046996.1,N
1568095535.4,286047000.9,N
1568095555.3,286047000.3,N
1568095575.1,286047000.5,N
1568095576.0,286047000.5,N
1568095595.8,286046998.4,N
1568095615.7,286046999.0,N
1568095635.5,286046999.5,N
1568095655.3,286046999.6,N
1568095675.2,286046997.9,N
1568095695.0,286046996.8,N
1568095695.9,286046996.8,N
1568095715.8,286046997.4,N
1568095735.6,286046997.1,N
1568095755.4,286046996.1,N
1568095775.3,286046996.2,N
1568095795.1,286046999.2,N
1568095815.8,286046997.5,N
1568095835.7,286046997.4,N
1568095855.5,286046995.7,N
1568095875.4,286046996.4,N
1568095895.2,286046997.6,N
1568095915.0,286046994.6,Y
1568095915.9,286046994.6,P
1568095935.8,286046995.4,N
1568095955.6,286046996.3,N
1568095975.4,286046995.5,Y
1568095995.3,286047001.0,P
1568096015.1,286047000.0,N
1568096035.9,286046997.1,N
1568096055.7,286046998.6,N
1568096075.5,286047000.1,N
1568096095.4,286046998.8,N
1568096115.2,286046997.1,N
1568096135.0,286046995.5,N
1568096166.0,286046995.6,E
1568096175.9,286046997.0,N
1568096195.7,286046999.8,P
1568096215.6,286047000.3,N
1568096235.4,286046999.7,N
1568096255.2,286047002.6,N
1568096275.1,286047002.2,N
1568096276.0,286047002.2,N
1568096295.8,286047000.1,N
1568096315.7,286047000.1,N
1568096335.5,286047002.7,N
1568096355.3,286047004.4,N
1568096375.2,286047001.8,N
1568096395.0,286047001.3,N
1568096395.9,286047001.3,N
1568096415.7,286047000.4,N
1568096435.6,286047000.1,N
1568096455.4,286047000.3,N
1568096475.3,286047001.1,N
1568096495.1,286046999.7,N
1568096496.0,286046999.7,N
1568096515.8,286046999.8,N
1568096535.7,286047002.1,N
1568096555.5,286047000.9,N
1568096575.3,286047002.4,N
1568096595.2,286047002.0,N
1568096615.0,286047002.8,N
1568096615.9,286047002.8,N
1568096635.8,286047011.9,Y
1568096655.6,286047000.9,P
1568096675.4,286046998.8,P
1568096695.3,286046999.0,N
1568096715.1,286046998.3,N
1568096735.8,286047002.7,N
1568096755.7,286047000.3,N
1568096775.5,286046999.0,N
1568096795.4,286046998.5,N
1568096815.2,286046998.7,N
1568096835.0,286046996.9,N
1568096835.9,286046996.9,N
1568096855.8,286046999.1,N
1568096875.6,286046998.6,N
1568096895.4,286046999.4,N
1568096915.3,286046997.1,N
1568096935.1,286046997.7,N
1568096955.9,286046995.9,N
1568096975.7,286046994.9,Y
1568096995.5,286047000.4,P
1568097015.4,286046999.7,N
1568097035.2,286046999.8,N
1568097055.1,286047000.4,N
1568097056.0,286047000.4,N
1568097075.8,286046999.8,N
1568097095.6,286047000.5,N
1568097115.5,286047000.2,N
1568097135.3,286047000.5,N
1568097155.2,286046998.5,Y
1568097175.9,286047000.8,P
1568097195.7,286047002.3,P
1568097215.6,286047000.4,N
1568097235.4,286047000.4,N
1568097255.2,286046998.1,N
1568097275.1,286046998.1,N
1568097276.0,286046998.1,N
1568097295.8,286046995.0,Y
1568097315.7,286046995.6,P
1568097335.5,286046995.4,N
1568097355.3,286046995.0,N
1568097375.2,286046995.4,N
1568097395.0,286046994.6,Y
1568097395.9,286046994.6,P
1568097415.8,286046997.9,N
1568097435.6,286046997.1,N
1568097455.4,286046996.9,N
1568097475.3,286046997.1,N
1568097495.1,286046997.1,N
1568097515.8,286046997.1,Y
1568097535.7,286047000.0,P
1568097555.5,286047000.4,N
1568097575.4,286047000.8,N
1568097595.2,286047000.1,N
1568097615.0,286047000.6,N
1568097615.9,286047000.6,N
1568097635.8,286046999.9,N
1568097655.6,286047000.7,N
1568097675.4,286046999.6,N
1568097695.3,286046996.6,Y
1568097715.1,286047000.2,P
1568097735.9,286047002.0,P
1568097755.7,286047003.1,P
1568097775.5,286047001.3,N
1568097795.4,286047001.7,N
1568097815.2,286047004.3,Y
1568097835.0,286047001.5,P
1568097836.0,286047001.5,P
1568097855.8,286047001.7,P
1568097875.6,286046999.7,N
1568097895.5,286046998.3,N
1568097915.3,286046999.2,N
1568097935.1,286047000.2,N
1568097955.9,286046998.5,N
1568097975.7,286047001.1,N
1568097995.6,286047001.9,N
1568098015.4,286047001.3,N
1568098035.2,286047002.1,N
1568098055.1,286047000.4,N
1568098056.0,286047000.4,N
1568098075.8,286047002.8,N
1568098095.6,286047002.6,N
1568098115.5,286046999.7,N
1568098135.3,286047000.0,N
1568098155.2,286047002.6,N
1568098175.9,286047002.5,N
1568098195.7,286047001.0,N
1568098215.6,286046998.4,N
1568098235.4,286046999.8,N
1568098255.3,286046998.3,N
1568098275.1,286047000.5,N
1568098276.0,286047000.5,N
1568098295.8,286047000.7,N
1568098315.7,286047001.1,N
1568098335.5,286046998.3,N
1568098355.3,286047000.5,N
1568098375.2,286046999.7,N
1568098395.0,286047002.5,N
1568098395.9,286047002.5,N
1568098415.8,286046998.1,N
1568098435.6,286047000.5,N
1568098455.4,286047000.3,N
1568098475.3,286047000.8,N
1568098495.1,286047001.2,N
1568098515.8,286046996.5,N
1568098535.7,286046998.7,N
1568098555.5,286046999.3,N
1568098575.4,286046999.6,N
1568098595.2,286046998.1,N
1568098615.0,286046998.1,N
1568098615.9,286046998.1,N
1568098635.8,286046996.9,N
1568098655.6,286046997.2,N
1568098675.4,286046997.8,N
1568098695.3,286046998.4,N
1568098715.1,286047000.4,N
1568098735.9,286046999.7,N
1568098755.7,286047000.5,N
1568098775.5,286047000.6,N
1568098795.4,286046998.2,N
